MST,Max TemperatureF,Mean TemperatureF,Min TemperatureF,Max Dew PointF,MeanDew PointF,Min DewpointF,Max Humidity, Mean Humidity, Min Humidity, Max Sea Level PressureIn, Mean Sea Level PressureIn, Min Sea Level PressureIn, Max VisibilityMiles, Mean VisibilityMiles, Min VisibilityMiles, Max Wind SpeedMPH, Mean Wind SpeedMPH, Max Gust SpeedMPH,PrecipitationIn, CloudCover, Events, WindDirDegrees
2013-2-1,40,30,19,30,26,13,89,74,59,30.22,30.11,30.03,10,10,9,13,6,17,0.01,8,Snow,252
2013-2-2,44,35,26,29,25,22,92,67,41,30.31,30.25,30.19,10,10,10,25,10,35,0.00,1,,267
2013-2-3,48,37,26,32,25,21,81,65,49,30.24,30.01,29.85,10,10,10,16,6,22,0.00,0,,258
2013-2-4,48,37,25,30,25,21,92,67,42,29.97,29.91,29.81,10,10,10,17,5,23,0.00,3,,263
2013-2-5,49,39,29,31,27,23,85,66,46,30.07,29.95,29.81,10,10,10,14,4,20,0.00,3,,224
2013-2-6,46,37,28,32,28,24,89,67,45,30.10,29.90,29.77,10,10,10,13,4,17,T,2,,309
2013-2-7,48,36,24,28,22,17,92,61,29,30.19,30.13,30.04,10,10,10,18,6,25,0.00,0,,248
2013-2-8,54,39,24,28,22,18,81,55,28,30.02,29.90,29.79,10,10,10,29,10,39,0.00,0,,184
2013-2-9,26,24,21,25,22,19,92,87,81,29.85,29.73,29.58,10,5,1,14,7,17,T,7,Snow,18
2013-2-10,30,22,14,25,20,11,88,75,62,30.14,29.75,29.55,10,6,2,31,17,45,T,7,Snow,340
2013-2-11,32,22,11,18,12,8,84,69,53,30.21,30.14,30.09,10,10,10,17,9,23,0.00,0,,254
2013-2-12,44,31,17,22,14,7,67,50,33,30.12,30.06,29.99,10,10,10,16,10,22,0.00,1,,258
2013-2-13,50,38,25,30,22,17,85,60,34,30.01,29.91,29.80,10,10,10,29,9,36,T,5,Rain,273
2013-2-14,35,25,15,27,19,11,85,67,49,30.41,30.23,30.01,10,9,2,28,11,39,0.02,5,Snow,326
2013-2-15,32,22,12,20,12,7,88,62,36,30.45,30.38,30.22,10,9,3,20,6,26,T,4,Snow,277
2013-2-16,55,41,27,25,23,19,78,55,32,30.18,30.01,29.87,10,10,10,22,10,28,0.00,3,,278
2013-2-17,57,42,27,27,23,17,78,50,21,29.85,29.69,29.54,10,10,10,25,9,35,0.00,1,,273
2013-2-18,37,24,10,23,17,8,88,64,40,30.25,30.04,29.81,10,8,1,25,12,32,T,4,Snow,337
2013-2-19,34,19,3,17,8,0,88,70,51,30.32,30.21,30.11,10,10,5,21,9,26,0.00,1,,115
2013-2-20,26,22,18,18,13,4,81,65,49,30.09,29.97,29.86,10,9,1,30,12,38,T,6,Snow,141
2013-2-21,25,19,13,18,15,10,92,83,74,30.07,29.97,29.88,10,4,0,12,5,15,0.10,8,Fog-Snow,87
2013-2-22,38,27,16,25,18,12,88,70,52,30.08,29.97,29.87,10,10,8,10,2,14,T,5,,252
2013-2-23,49,30,10,26,18,7,92,60,28,29.85,29.76,29.66,10,10,10,17,5,21,0.00,3,,289
2013-2-24,34,30,26,29,27,23,92,82,72,30.16,29.98,29.82,10,5,1,18,7,23,0.06,8,Snow,352
2013-2-25,43,31,18,23,19,15,88,61,33,30.17,30.04,29.89,10,10,10,12,5,15,0.00,0,,234
2013-2-26,43,28,13,27,19,12,84,57,30,30.15,29.96,29.86,10,10,10,22,9,28,T,1,,342
2013-2-27,41,30,19,20,19,17,92,65,38,30.31,30.25,30.16,10,10,10,23,8,29,T,3,,344
2013-2-28,44,29,13,23,18,10,92,64,36,30.32,30.28,30.22,10,10,10,12,3,15,0.00,3,,13